FW2728 Weather Reports


Display with metric or nautical units.
time (UTC)temp
F
wind
direction
speed
MPH
gust
MPH
rain 1hr
in
rain 24hr
in
rain mn
in
humidity
%
barometer
mb
20260906150015 88 70 1.0 4.0 0.00 0.00 0.00 63 1014.5
20260906145016 88 102 1.0 4.0 0.00 0.00 0.00 64 1014.4
20260906144016 88 120 1.0 3.0 0.00 0.00 0.00 64 1014.4
20260906143036 87 114 1.0 5.0 0.00 0.00 0.00 65 1014.4
20260906142037 86 115 1.0 3.0 0.00 0.00 0.00 67 1014.4
20260906141016 86 80 1.0 4.0 0.00 0.00 0.00 68 1014.4
20260906140016 85 81 1.0 3.0 0.00 0.00 0.00 70 1014.3
20260906135037 84 89 1.0 4.0 0.00 0.00 0.00 70 1014.2
20260906134037 83 122 0.0 2.0 0.00 0.00 0.00 72 1014.3
20260906133017 83 115 1.0 3.0 0.00 0.00 0.00 73 1014.3
20260906132017 83 92 1.0 2.0 0.00 0.00 0.00 73 1014.3
20260906131017 81 124 0.0 2.0 0.00 0.00 0.00 76 1014.3
20260906130017 80 110 0.0 2.0 0.00 0.00 0.00 79 1014.2
20260906125018 79 101 1.0 2.0 0.00 0.00 0.00 82 1014.1
20260906124018 78 88 1.0 2.0 0.00 0.00 0.00 83 1014.2
20260906123018 78 126 0.0 2.0 0.00 0.00 0.00 84 1014.1
20260906122018 77 122 1.0 3.0 0.00 0.00 0.00 84 1014.0
20260906121016 77 147 0.0 2.0 0.00 0.00 0.00 85 1013.9
20260906120015 77 67 0.0 1.0 0.00 0.00 0.00 84 1013.8
20260906115015 77 71 0.0 1.0 0.00 0.00 0.00 85 1013.7
20260906114036 77 33 0.0 1.0 0.00 0.00 0.00 84 1013.5
20260906113016 77 0.0 0.0 0.00 0.00 0.00 84 1013.6
20260906112016 78 0.0 0.0 0.00 0.00 0.00 83 1013.4
20260906111016 78 0.0 0.0 0.00 0.00 0.00 83 1013.4
20260906110017 78 50 0.0 1.0 0.00 0.00 0.00 82 1013.3
20260906105017 78 74 0.0 1.0 0.00 0.00 0.00 82 1013.3
20260906104017 78 49 0.0 1.0 0.00 0.00 0.00 82 1013.3
20260906103017 78 56 0.0 1.0 0.00 0.00 0.00 82 1013.3
20260906102017 78 38 0.0 0.0 0.00 0.00 0.00 81 1013.2
20260906101017 79 0.0 0.0 0.00 0.00 0.00 81 1013.0
20260906100017 79 47 0.0 1.0 0.00 0.00 0.00 81 1012.9
20260906095038 79 0.0 0.0 0.00 0.00 0.00 80 1012.7
20260906094018 79 249 0.0 1.0 0.00 0.00 0.00 79 1012.7
20260906093018 80 0.0 0.0 0.00 0.00 0.00 78 1012.7
20260906092038 80 332 0.0 0.0 0.00 0.00 0.00 78 1012.7
20260906091016 80 74 0.0 1.0 0.00 0.00 0.00 77 1012.6
20260906090016 80 73 0.0 1.0 0.00 0.00 0.00 76 1012.5
20260906085016 81 67 0.0 0.0 0.00 0.00 0.00 75 1012.4
20260906084116 81 246 1.0 3.0 0.00 0.00 0.00 75 1012.5
20260906083016 81 0.0 0.0 0.00 0.00 0.00 74 1012.6
20260906082017 82 165 0.0 1.0 0.00 0.00 0.00 74 1012.6
20260906081016 82 106 0.0 1.0 0.00 0.00 0.00 73 1012.5
20260906080017 82 194 0.0 3.0 0.00 0.00 0.00 73 1012.6
20260906075017 82 189 1.0 4.0 0.00 0.00 0.00 72 1012.7
20260906074017 83 200 1.0 3.0 0.00 0.00 0.00 72 1012.7
20260906073017 83 217 2.0 5.0 0.00 0.00 0.00 72 1012.7
20260906072018 83 181 2.0 5.0 0.00 0.00 0.00 71 1012.7
20260906071017 83 178 1.0 3.0 0.00 0.00 0.00 71 1012.9
20260906070018 83 191 1.0 4.0 0.00 0.00 0.00 71 1012.9
20260906065018 84 196 1.0 4.0 0.00 0.00 0.00 70 1012.9
20260906064038 84 192 1.0 6.0 0.00 0.00 0.00 70 1013.0
20260906063016 84 183 2.0 5.0 0.00 0.00 0.00 70 1013.1
20260906062036 84 193 1.0 5.0 0.00 0.00 0.00 70 1013.2
20260906061015 84 203 0.0 2.0 0.00 0.00 0.00 70 1013.2
20260906060016 84 158 0.0 2.0 0.00 0.00 0.00 69 1013.1
20260906055016 85 191 0.0 2.0 0.00 0.00 0.00 69 1013.1
20260906054036 85 192 1.0 4.0 0.00 0.00 0.00 69 1013.0
20260906053016 85 190 0.0 3.0 0.00 0.00 0.00 68 1013.0
20260906052016 85 120 0.0 3.0 0.00 0.00 0.00 68 1013.0
20260906051017 86 218 1.0 5.0 0.00 0.00 0.00 67 1013.0
20260906050037 86 160 0.0 2.0 0.00 0.00 0.00 67 1013.0
20260906045038 86 202 2.0 5.0 0.00 0.00 0.00 67 1013.1
20260906044018 86 152 1.0 3.0 0.00 0.00 0.00 66 1012.9
20260906043038 86 183 1.0 4.0 0.00 0.00 0.00 65 1012.8
20260906042018 87 141 1.0 3.0 0.00 0.00 0.00 65 1012.8
20260906041016 87 198 2.0 6.0 0.00 0.00 0.00 64 1012.7
20260906040016 87 128 1.0 4.0 0.00 0.00 0.00 63 1012.8
20260906035116 87 127 1.0 4.0 0.00 0.00 0.00 63 1012.7
20260906034015 87 122 1.0 5.0 0.00 0.00 0.00 62 1012.9
20260906033016 88 153 1.0 5.0 0.00 0.00 0.00 62 1012.9
20260906032016 88 186 2.0 5.0 0.00 0.00 0.00 61 1012.9
20260906031017 88 142 2.0 5.0 0.00 0.00 0.00 61 1012.9
20260906030016 88 133 2.0 9.0 0.00 0.00 0.00 60 1012.8
20260906025017 88 134 2.0 7.0 0.00 0.00 0.00 59 1012.8
20260906024017 88 117 3.0 6.0 0.00 0.00 0.00 59 1012.7
20260906023057 88 123 2.0 5.0 0.00 0.00 0.00 59 1012.5
20260906022017 89 127 2.0 6.0 0.00 0.00 0.00 59 1012.3
20260906021017 89 158 1.0 4.0 0.00 0.00 0.00 58 1012.1
20260906020018 89 142 3.0 6.0 0.00 0.00 0.00 58 1012.0
20260906015016 90 148 3.0 7.0 0.00 0.00 0.00 57 1011.9
20260906014016 90 152 3.0 7.0 0.00 0.00 0.00 56 1011.7
20260906013015 91 129 3.0 7.0 0.00 0.00 0.00 54 1011.6
20260906012035 91 135 3.0 10.0 0.00 0.00 0.00 53 1011.4
20260906011016 92 104 3.0 7.0 0.00 0.00 0.00 52 1011.3
20260906010016 93 120 3.0 10.0 0.00 0.00 0.00 51 1011.2
20260906005016 95 120 4.0 9.0 0.00 0.00 0.00 45 1011.1
20260906004016 96 102 2.0 7.0 0.00 0.00 0.00 41 1010.8
20260906003036 97 118 2.0 5.0 0.00 0.00 0.00 40 1010.9
20260906002016 97 104 3.0 8.0 0.00 0.00 0.00 39 1010.8
20260906001036 98 107 3.0 6.0 0.00 0.00 0.00 38 1010.7
20260906000017 99 114 2.0 6.0 0.00 0.00 0.00 37 1010.6
20260905235017 100 98 2.0 5.0 0.00 0.00 0.00 36 1010.5
20260905234017 100 86 2.0 6.0 0.00 0.00 0.00 35 1010.5
20260905233037 100 102 2.0 4.0 0.00 0.00 0.00 34 1010.4
20260905232018 100 100 3.0 6.0 0.00 0.00 0.00 35 1010.5
20260905231018 100 88 2.0 6.0 0.00 0.00 0.00 36 1010.5
20260905230038 101 122 3.0 6.0 0.00 0.00 0.00 35 1010.3
20260905225058 101 105 1.0 4.0 0.00 0.00 0.00 35 1010.4
20260905224018 101 217 1.0 7.0 0.00 0.00 0.00 34 1010.4
20260905223038 100 52 2.0 3.0 0.00 0.00 0.00 35 1010.4
20260905222038 100 103 1.0 4.0 0.00 0.00 0.00 34 1010.5
20260905221016 101 81 2.0 6.0 0.00 0.00 0.00 35 1010.6
20260905220016 100 91 3.0 7.0 0.00 0.00 0.00 35 1010.6
20260905215055 98 128 2.0 5.0 0.00 0.00 0.00 36 1010.8
20260905214016 98 55 2.0 4.0 0.00 0.00 0.00 38 1010.9
20260905213016 100 57 3.0 6.0 0.00 0.00 0.00 36 1011.0
20260905212017 98 62 2.0 4.0 0.00 0.00 0.00 39 1011.1
20260905211017 98 318 1.0 3.0 0.00 0.00 0.00 39 1011.3
20260905210036 99 167 1.0 4.0 0.00 0.00 0.00 38 1011.5
20260905205017 99 88 1.0 3.0 0.00 0.00 0.00 37 1011.5
20260905204017 100 103 2.0 5.0 0.00 0.00 0.00 37 1011.6
20260905203017 101 52 3.0 5.0 0.00 0.00 0.00 37 1011.7
20260905202017 101 74 3.0 6.0 0.00 0.00 0.00 37 1011.7
20260905201017 101 45 2.0 5.0 0.00 0.00 0.00 36 1011.8
20260905200018 100 76 2.0 5.0 0.00 0.00 0.00 36 1012.1
20260905195018 99 147 2.0 5.0 0.00 0.00 0.00 37 1012.3
20260905194018 98 57 1.0 5.0 0.00 0.00 0.00 39 1012.5
20260905193018 99 90 1.0 4.0 0.00 0.00 0.00 38 1012.8
20260905192015 98 283 3.0 6.0 0.00 0.00 0.00 40 1012.7
20260905191015 99 245 3.0 6.0 0.00 0.00 0.00 39 1013.0
20260905190016 99 124 2.0 8.0 0.00 0.00 0.00 37 1013.2
20260905185016 98 98 2.0 5.0 0.00 0.00 0.00 38 1013.4
20260905184016 98 120 2.0 6.0 0.00 0.00 0.00 39 1013.4
20260905183016 98 179 3.0 9.0 0.00 0.00 0.00 40 1013.5
20260905182017 98 55 2.0 5.0 0.00 0.00 0.00 40 1013.6
20260905181017 98 80 3.0 8.0 0.00 0.00 0.00 40 1014.0
20260905180037 98 100 2.0 6.0 0.00 0.00 0.00 40 1014.1
20260905175037 97 68 2.0 6.0 0.00 0.00 0.00 41 1014.2
20260905174017 97 228 3.0 8.0 0.00 0.00 0.00 43 1014.3
20260905173017 97 97 1.0 4.0 0.00 0.00 0.00 42 1014.4
20260905172017 95 110 2.0 7.0 0.00 0.00 0.00 44 1014.5
20260905171057 94 268 2.0 4.0 0.00 0.00 0.00 46 1014.6
20260905170017 95 190 2.0 5.0 0.00 0.00 0.00 45 1014.7
20260905165018 95 173 1.0 3.0 0.00 0.00 0.00 45 1014.7
20260905164018 94 109 2.0 5.0 0.00 0.00 0.00 46 1014.8
20260905163018 94 64 1.0 3.0 0.00 0.00 0.00 48 1014.9
20260905162016 92 291 2.0 5.0 0.00 0.00 0.00 50 1014.8
20260905161018 92 286 3.0 7.0 0.00 0.00 0.00 53 1014.8
20260905160016 92 113 1.0 3.0 0.00 0.00 0.00 52 1014.8
20260905155016 90 219 2.0 4.0 0.00 0.00 0.00 55 1014.8
20260905154016 90 237 1.0 4.0 0.00 0.00 0.00 55 1014.8
20260905153036 89 221 2.0 3.0 0.00 0.00 0.00 57 1014.9
20260905152016 89 228 2.0 4.0 0.00 0.00 0.00 57 1014.8
20260905151036 88 236 2.0 5.0 0.00 0.00 0.00 58 1014.7
20260905150017 88 238 1.0 4.0 0.00 0.00 0.00 59 1014.6